Regional Weather Roundup
Issued by NWS

Home | Current Version | Previous Version | Text Only | Print | Product List | Glossary Off
Versions: 1 2 3 4 5 6 7 8 9 10 11 12 13 14 15 16 17 18 19 20 21 22 23 24 25 26 27 28 29 30 31 32 33 34 35 36 37 38 39 40 41 42 43 44 45 46 47 48 49 50

583
ASUS44 KJAN 212210
RWRMS

MISSISSIPPI HOURLY WEATHER ROUNDUP
NATIONAL WEATHER SERVICE JACKSON MS
500 PM CDT THU AUG 21 2014

NOTE: "FAIR: INDICATES FEW OR NO CLOUDS BELOW 12,000 FEET WITH NO
SIGNIFICANT WEATHER AND/OR OBSTRUCTIONS TO VISIBILITY.

MSZ001>002-007>008-010>013-018>021-025>028-034>036-212300-
NORTHWEST MISSISSIPPI

CITY           SKY/WX    TMP DP  RH WIND       PRES   REMARKS
CLARKSDALE     FAIR      91  77  62 CALM      30.05F HX 105
CLEVELAND      FAIR      93  76  59 W7        30.04F HX 105
GREENWOOD      SUNNY     93  73  52 SW6       30.05F HX 102
GREENVILLE     SUNNY     94  73  50 W6        30.04F HX 103
GRENADA        FAIR      91  70  49 CALM      30.06S HX  97
OLIVE BRANCH   MOSUNNY   91  75  59 S9        30.05F HX 102
OXFORD         FAIR      90  72  55 SW3       30.09S HX  96
TUNICA         CLEAR     91  72  52 S10       30.04F HX  98
$$

MSZ003>006-009-014>017-022>024-029>033-037>039-212300-
NORTHEAST MISSISSIPPI

CITY           SKY/WX    TMP DP  RH WIND       PRES   REMARKS
BELMONT        FAIR      90  75  61 SW5       30.08S HX 100
COLUMBUS AFB   SUNNY     94  70  45 W2        30.05F HX  99
CORINTH        FAIR      91  73  55 VRB5      30.06S HX 100
GOLDN TRIANGLE MOSUNNY   97  72  44 N9        30.06F HX 105
STARKVILLE     FAIR      95  70  43 NW3       30.05F HX 101
TUPELO         SUNNY     94  70  45 VRB6      30.06F HX 100
$$

MSZ040-058-212300-
CENTRAL MISSISSIPPI

CITY           SKY/WX    TMP DP  RH WIND       PRES   REMARKS
JACKSON INTL   PTSUNNY   92  71  50 CALM      30.07S HX  98
JACKSON HAWKNS MOSUNNY   93  72  50 NW3       30.07F HX 101
MERIDIAN KEY   SUNNY     95  67  39 NW5       30.07S HX  99
MERIDIAN NAS   MOSUNNY   94  69  44 VRB3      30.07S HX  99
RAYMOND        FAIR      95  90  84 SW5       30.07S HX 139
VICKSBURG      HVY RAIN  79  71  76 CALM      30.08R
$$

MSZ059>079-212300-
SOUTH MISSISSIPPI

CITY           SKY/WX    TMP DP  RH WIND       PRES   REMARKS
BROOKHAVEN     TSTM      79  70  73 SW12G48   30.14R
HATTIESBURG    MOSUNNY   91  71  51 SW7       30.08R HX  97
MCCOMB         PTSUNNY   88  73  61 SW6       30.11R THUNDER HX  95
NATCHEZ        CLOUDY    88  75  66 S7        30.10S HX  97
PINE BELT      MOSUNNY   91  72  52 CALM      30.10R HX  98
$$

MSZ080>082-212300-
COASTAL MISSISSIPPI

CITY           SKY/WX    TMP DP  RH WIND       PRES   REMARKS
BAY ST LOUIS   MOSUNNY  N/A N/A N/A S7        30.08S
BILOXI         SUNNY     91  74  57 S13       30.08S HX 100
PASCAGOULA     SUNNY     90  74  59 S8        30.07S HX  99
GULFPORT       SUNNY     91  73  55 VRB6      30.07S HX  99
$$



USA.gov is the U.S. government's official web portal to all federal, state and local government web resources and services.